^^
Station Historical Data
Daily Summary for November 7, 2021 Units:  English    Metric   Both
Daily Weekly Monthly Yearly
  High: Low: Average:
Temperature: 46.1 °F 44.4 °F 45.3 °F
Dew Point: 39.9 °F 38.2 °F 38.9 °F
Humidity: 84% 74% 78%
Wind Speed: 5mph 2mph 3.2mph
Wind Gust: 7mph - -
Wind- - SE
Pressure: 30.08 in 30.04 in -
Precipitation: 0.00 in    
 
 
Tabular Data for November 7, 2021
Time Temperature Dew Point Pressure Wind Wind Speed Wind Gust Humidity Rainfall Rate (Hourly) solar
00:00 45.6 °F 38.8 °F 30.08 in WSW 3 mph 3 mph 77% 0.00 in 0 W/m2
00:05 45.5 °F 38.7 °F 30.08 in NNE 3 mph 4 mph 77% 0.00 in 0 W/m2
00:10 45.4 °F 38.6 °F 30.08 in NNW 3 mph 3 mph 77% 0.00 in 0 W/m2
00:15 45.3 °F 38.5 °F 30.07 in North 3 mph 3 mph 77% 0.00 in 0 W/m2
00:20 45.2 °F 38.4 °F 30.07 in ENE 3 mph 3 mph 77% 0.00 in 0 W/m2
00:25 45.2 °F 38.7 °F 30.07 in NNE 3 mph 3 mph 78% 0.00 in 0 W/m2
00:30 45.2 °F 38.4 °F 30.07 in NNE 3 mph 3 mph 77% 0.00 in 0 W/m2
00:35 45.2 °F 38.7 °F 30.07 in NE 3 mph 5 mph 78% 0.00 in 0 W/m2
00:40 45.1 °F 38.6 °F 30.06 in NE 3 mph 4 mph 78% 0.00 in 0 W/m2
00:45 45.1 °F 38.6 °F 30.06 in NNE 2 mph 4 mph 78% 0.00 in 0 W/m2
00:50 45.1 °F 38.6 °F 30.06 in ESE 3 mph 3 mph 78% 0.00 in 0 W/m2
00:55 45.1 °F 38.6 °F 30.06 in East 3 mph 3 mph 78% 0.00 in 0 W/m2
01:00 45.1 °F 38.6 °F 30.06 in NNE 3 mph 3 mph 78% 0.00 in 0 W/m2
01:05 45.1 °F 39 °F 30.06 in East 3 mph 3 mph 79% 0.00 in 0 W/m2
01:10 45.1 °F 38.6 °F 30.06 in NE 3 mph 3 mph 78% 0.00 in 0 W/m2
01:15 45.2 °F 38.7 °F 30.06 in North 3 mph 4 mph 78% 0.00 in 0 W/m2
01:20 45.2 °F 38.4 °F 30.05 in NNW 3 mph 3 mph 77% 0.00 in 0 W/m2
01:25 45.2 °F 38.4 °F 30.05 in NE 3 mph 3 mph 77% 0.00 in 0 W/m2
01:30 45.2 °F 38.7 °F 30.05 in NNE 3 mph 3 mph 78% 0.00 in 0 W/m2
01:40 45.2 °F 38.7 °F 30.05 in NNW 3 mph 3 mph 78% 0.00 in 0 W/m2
01:45 45.1 °F 38.6 °F 30.05 in North 3 mph 3 mph 78% 0.00 in 0 W/m2
01:50 45.1 °F 39 °F 30.05 in ENE 3 mph 3 mph 79% 0.00 in 0 W/m2
01:55 45.2 °F 38.7 °F 30.05 in SSW 3 mph 3 mph 78% 0.00 in 0 W/m2
01:00 45.3 °F 38.8 °F 30.05 in North 3 mph 4 mph 78% 0.00 in 0 W/m2
01:05 45.5 °F 38.7 °F 30.05 in NNE 3 mph 4 mph 77% 0.00 in 0 W/m2
01:10 45.8 °F 38.7 °F 30.05 in SSE 3 mph 5 mph 76% 0.00 in 0 W/m2
01:15 45.9 °F 38.8 °F 30.05 in NE 3 mph 5 mph 76% 0.00 in 0 W/m2
01:20 46 °F 38.5 °F 30.05 in ENE 2 mph 2 mph 75% 0.00 in 0 W/m2
01:25 46 °F 38.5 °F 30.05 in SSW 3 mph 3 mph 75% 0.00 in 0 W/m2
01:30 46.1 °F 38.3 °F 30.05 in WNW 3 mph 3 mph 74% 0.00 in 0 W/m2
01:35 46.1 °F 38.3 °F 30.05 in SSW 3 mph 3 mph 74% 0.00 in 0 W/m2
01:40 46.1 °F 38.3 °F 30.05 in South 3 mph 3 mph 74% 0.00 in 0 W/m2
01:45 46.1 °F 38.3 °F 30.05 in SE 4 mph 4 mph 74% 0.00 in 0 W/m2
01:50 46 °F 38.2 °F 30.05 in SSW 4 mph 5 mph 74% 0.00 in 0 W/m2
01:55 46 °F 38.5 °F 30.05 in ENE 4 mph 5 mph 75% 0.00 in 0 W/m2
02:00 45.9 °F 38.8 °F 30.05 in SSE 3 mph 4 mph 76% 0.00 in 0 W/m2
02:05 45.9 °F 38.8 °F 30.05 in ESE 4 mph 4 mph 76% 0.00 in 0 W/m2
02:10 45.8 °F 38.7 °F 30.05 in SSW 4 mph 5 mph 76% 0.00 in 0 W/m2
02:15 45.8 °F 38.7 °F 30.05 in SSW 4 mph 6 mph 76% 0.00 in 0 W/m2
02:20 45.7 °F 38.6 °F 30.05 in WSW 4 mph 4 mph 76% 0.00 in 0 W/m2
02:25 45.6 °F 38.8 °F 30.05 in SW 4 mph 5 mph 77% 0.00 in 0 W/m2
02:30 45.6 °F 39.1 °F 30.05 in SSW 4 mph 5 mph 78% 0.00 in 0 W/m2
02:35 45.5 °F 39 °F 30.05 in SSE 4 mph 5 mph 78% 0.00 in 0 W/m2
02:40 45.4 °F 38.9 °F 30.05 in South 4 mph 4 mph 78% 0.00 in 0 W/m2
02:45 45.4 °F 38.9 °F 30.05 in SSW 4 mph 7 mph 78% 0.00 in 0 W/m2
02:50 45.4 °F 39.3 °F 30.05 in SSW 4 mph 5 mph 79% 0.00 in 0 W/m2
02:55 45.4 °F 38.9 °F 30.05 in NNW 4 mph 5 mph 78% 0.00 in 0 W/m2
03:00 45.3 °F 38.8 °F 30.05 in SW 3 mph 6 mph 78% 0.00 in 0 W/m2
03:05 45.3 °F 38.8 °F 30.05 in West 4 mph 6 mph 78% 0.00 in 0 W/m2
03:10 45.3 °F 38.8 °F 30.05 in SSW 4 mph 5 mph 78% 0.00 in 0 W/m2
03:15 45.3 °F 38.8 °F 30.05 in SW 5 mph 6 mph 78% 0.00 in 0 W/m2
03:20 45.3 °F 38.8 °F 30.05 in West 4 mph 4 mph 78% 0.00 in 0 W/m2
03:25 45.2 °F 39.1 °F 30.05 in SW 4 mph 5 mph 79% 0.00 in 0 W/m2
03:30 45.2 °F 39.1 °F 30.05 in SSE 4 mph 6 mph 79% 0.00 in 0 W/m2
03:35 45.1 °F 39 °F 30.05 in SSW 4 mph 6 mph 79% 0.00 in 0 W/m2
03:40 45.1 °F 39 °F 30.05 in West 4 mph 4 mph 79% 0.00 in 0 W/m2
03:45 45 °F 38.9 °F 30.05 in SW 4 mph 6 mph 79% 0.00 in 0 W/m2
03:50 45 °F 39.2 °F 30.04 in South 4 mph 4 mph 80% 0.00 in 0 W/m2
03:55 44.9 °F 39.1 °F 30.05 in South 4 mph 4 mph 80% 0.00 in 0 W/m2
04:00 44.9 °F 39.4 °F 30.05 in SW 4 mph 4 mph 81% 0.00 in 0 W/m2
04:05 44.9 °F 39.4 °F 30.05 in SSW 4 mph 4 mph 81% 0.00 in 0 W/m2
04:10 44.8 °F 39.3 °F 30.05 in SSW 4 mph 4 mph 81% 0.00 in 0 W/m2
04:20 44.6 °F 39.1 °F 30.05 in ESE 2 mph 2 mph 81% 0.00 in 0 W/m2
04:25 44.6 °F 39.4 °F 30.05 in ENE 2 mph 2 mph 82% 0.00 in 0 W/m2
04:30 44.6 °F 39.4 °F 30.05 in ENE 2 mph 2 mph 82% 0.00 in 0 W/m2
04:35 44.6 °F 39.4 °F 30.05 in ESE 2 mph 2 mph 82% 0.00 in 0 W/m2
04:40 44.5 °F 39.3 °F 30.05 in East 2 mph 2 mph 82% 0.00 in 0 W/m2
04:45 44.6 °F 39.4 °F 30.05 in SW 2 mph 2 mph 82% 0.00 in 0 W/m2
04:55 44.6 °F 39.8 °F 30.05 in ENE 2 mph 2 mph 83% 0.00 in 0 W/m2
05:00 44.6 °F 39.8 °F 30.05 in NE 2 mph 2 mph 83% 0.00 in 0 W/m2
05:05 44.5 °F 39.7 °F 30.05 in North 2 mph 2 mph 83% 0.00 in 0 W/m2
05:10 44.4 °F 39.9 °F 30.06 in NNE 2 mph 2 mph 84% 0.00 in 0 W/m2
Sand Point, Michigan, USA
Compliments of Weather Underground - 2 mb